• în Republica Moldova
  • Lista ţărilor
  • Pe 7 zile
  • Temperatura apei
  • Hartă satelitară
  • Meteo pe hartă
  • Widget-uri
  • user-avatar
    Intrare

    Meteo pe oră la Albany

    Astăzi, 23 Ianuarie, Marţi

    Timp Temperatura Precipitaţii Vânt Presiune Umiditate
    00:00 +17°C° 0 mm 3 m/s 756 mmHg 87%
    01:00 +16°C° 0 mm 2 m/s 756 mmHg 88%
    02:00 +16°C° 0 mm 2 m/s 756 mmHg 90%
    03:00 +16°C° 0 mm 2 m/s 756 mmHg 90%
    04:00 +16°C° 0 mm 2 m/s 756 mmHg 91%
    05:00 +16°C° 0 mm 1 m/s 756 mmHg 91%
    06:00 +17°C° 0 mm 2 m/s 756 mmHg 84%
    07:00 +19°C° 0 mm 2 m/s 756 mmHg 77%
    08:00 +20°C° 0 mm 2 m/s 756 mmHg 69%
    09:00 +22°C° 0 mm 3 m/s 756 mmHg 65%
    10:00 +24°C° 0 mm 3 m/s 756 mmHg 60%
    11:00 +25°C° 0 mm 4 m/s 756 mmHg 55%
    12:00 +25°C° 0 mm 4 m/s 756 mmHg 54%
    13:00 +25°C° 0 mm 4 m/s 755 mmHg 54%
    14:00 +25°C° 0 mm 4 m/s 755 mmHg 55%
    15:00 +23°C° 0 mm 4 m/s 755 mmHg 57%
    16:00 +23°C° 0 mm 4 m/s 755 mmHg 59%
    17:00 +22°C° 0 mm 4 m/s 755 mmHg 61%
    18:00 +21°C° 0 mm 4 m/s 755 mmHg 66%
    19:00 +19°C° 0 mm 4 m/s 756 mmHg 72%
    20:00 +18°C° 0 mm 3 m/s 756 mmHg 77%
    21:00 +18°C° 0 mm 3 m/s 756 mmHg 78%
    22:00 +18°C° 0 mm 3 m/s 756 mmHg 80%
    23:00 +17°C° 0 mm 2 m/s 756 mmHg 81%

    Mâine, 24 Ianuarie, Miercuri

    Timp Temperatura Precipitaţii Vânt Presiune Umiditate
    00:00 +17°C° 0 mm 2 m/s 756 mmHg 82%
    01:00 +17°C° 0 mm 2 m/s 755 mmHg 83%
    02:00 +17°C° 0 mm 2 m/s 755 mmHg 83%
    03:00 +17°C° 0 mm 2 m/s 755 mmHg 84%
    04:00 +17°C° 0 mm 2 m/s 755 mmHg 84%
    05:00 +16°C° 0 mm 2 m/s 755 mmHg 84%
    06:00 +18°C° 0 mm 2 m/s 755 mmHg 78%
    07:00 +19°C° 0 mm 2 m/s 755 mmHg 71%
    08:00 +20°C° 0 mm 2 m/s 755 mmHg 65%
    09:00 +23°C° 0 mm 2 m/s 755 mmHg 60%
    10:00 +24°C° 0 mm 3 m/s 754 mmHg 54%
    11:00 +25°C° 0 mm 3 m/s 754 mmHg 49%
    12:00 +26°C° 0 mm 3 m/s 754 mmHg 49%
    13:00 +26°C° 0 mm 4 m/s 753 mmHg 49%
    14:00 +26°C° 0 mm 4 m/s 753 mmHg 49%
    15:00 +25°C° 0 mm 4 m/s 752 mmHg 52%
    16:00 +23°C° 0 mm 4 m/s 752 mmHg 54%
    17:00 +23°C° 0 mm 4 m/s 752 mmHg 57%
    18:00 +21°C° 0 mm 4 m/s 752 mmHg 62%
    19:00 +20°C° 0 mm 3 m/s 752 mmHg 67%
    20:00 +18°C° 0 mm 3 m/s 752 mmHg 72%
    21:00 +18°C° 0 mm 2 m/s 753 mmHg 75%
    22:00 +17°C° 0 mm 2 m/s 753 mmHg 77%
    23:00 +17°C° 0 mm 2 m/s 753 mmHg 80%

    Poimâine, 25 Ianuarie, Joi

    Timp Temperatura Precipitaţii Vânt Presiune Umiditate
    00:00 +16°C° 0 mm 1 m/s 752 mmHg 82%
    01:00 +16°C° 0 mm 1 m/s 752 mmHg 84%
    02:00 +16°C° 0 mm 1 m/s 752 mmHg 86%
    03:00 +15°C° 0 mm 1 m/s 752 mmHg 87%
    04:00 +14°C° 0 mm 0 m/s 752 mmHg 88%
    05:00 +14°C° 0 mm 0 m/s 752 mmHg 89%
    06:00 +18°C° 0 mm 1 m/s 753 mmHg 81%
    07:00 +19°C° 0 mm 1 m/s 753 mmHg 72%
    08:00 +20°C° 0 mm 2 m/s 753 mmHg 64%
    09:00 +23°C° 0 mm 2 m/s 753 mmHg 57%
    10:00 +24°C° 0 mm 2 m/s 753 mmHg 51%
    11:00 +26°C° 0 mm 3 m/s 753 mmHg 44%
    12:00 +26°C° 0 mm 3 m/s 752 mmHg 44%
    13:00 +27°C° 0 mm 3 m/s 752 mmHg 43%
    14:00 +27°C° 0 mm 4 m/s 751 mmHg 43%
    15:00 +26°C° 0 mm 4 m/s 751 mmHg 47%
    16:00 +25°C° 0 mm 4 m/s 751 mmHg 50%
    17:00 +23°C° 0 mm 4 m/s 751 mmHg 54%
    18:00 +22°C° 0 mm 3 m/s 751 mmHg 60%
    19:00 +20°C° 0 mm 2 m/s 752 mmHg 65%
    20:00 +19°C° 0 mm 2 m/s 752 mmHg 71%
    21:00 +19°C° 0 mm 1 m/s 752 mmHg 74%
    22:00 +18°C° 0 mm 1 m/s 752 mmHg 77%
    23:00 +18°C° 0 mm 1 m/s 752 mmHg 80%

    26 Ianuarie, Vineri

    Timp Temperatura Precipitaţii Vânt Presiune Umiditate
    00:00 +18°C° 0 mm 1 m/s 752 mmHg 83%
    01:00 +16°C° 0 mm 1 m/s 752 mmHg 85%
    02:00 +16°C° 0 mm 1 m/s 752 mmHg 87%
    03:00 +16°C° 0 mm 1 m/s 751 mmHg 87%
    04:00 +16°C° 0 mm 1 m/s 751 mmHg 88%
    05:00 +15°C° 0 mm 1 m/s 751 mmHg 89%
    06:00 +19°C° 0 mm 1 m/s 751 mmHg 78%
    07:00 +21°C° 0 mm 1 m/s 752 mmHg 68%
    08:00 +23°C° 0 mm 1 m/s 752 mmHg 58%
    09:00 +25°C° 0 mm 1 m/s 752 mmHg 53%
    10:00 +27°C° 0 mm 2 m/s 751 mmHg 47%
    11:00 +29°C° 0 mm 2 m/s 751 mmHg 41%
    12:00 +29°C° 0 mm 2 m/s 751 mmHg 43%
    13:00 +29°C° 0 mm 3 m/s 750 mmHg 44%
    14:00 +29°C° 0 mm 4 m/s 750 mmHg 46%
    15:00 +28°C° 0 mm 4 m/s 750 mmHg 50%
    16:00 +27°C° 0 mm 4 m/s 749 mmHg 55%
    17:00 +25°C° 0 mm 4 m/s 749 mmHg 60%
    18:00 +24°C° 0 mm 3 m/s 749 mmHg 66%
    19:00 +22°C° 0 mm 3 m/s 750 mmHg 72%
    20:00 +20°C° 0 mm 2 m/s 750 mmHg 78%
    21:00 +20°C° 0 mm 2 m/s 750 mmHg 81%
    22:00 +20°C° 0 mm 1 m/s 750 mmHg 84%
    23:00 +20°C° 0 mm 1 m/s 750 mmHg 87%

    27 Ianuarie, Sâmbătă

    Timp Temperatura Precipitaţii Vânt Presiune Umiditate
    00:00 +19°C° 0 mm 1 m/s 750 mmHg 89%
    01:00 +19°C° 0 mm 1 m/s 750 mmHg 90%
    02:00 +19°C° 0 mm 1 m/s 749 mmHg 92%
    03:00 +19°C° 0 mm 1 m/s 749 mmHg 93%
    04:00 +17°C° 0 mm 2 m/s 749 mmHg 93%
    05:00 +17°C° 0 mm 2 m/s 749 mmHg 94%
    06:00 +19°C° 0 mm 3 m/s 749 mmHg 85%
    07:00 +21°C° 0 mm 4 m/s 749 mmHg 77%
    08:00 +22°C° 0 mm 4 m/s 750 mmHg 68%
    09:00 +25°C° 0 mm 5 m/s 750 mmHg 63%
    10:00 +26°C° 0 mm 6 m/s 750 mmHg 58%
    11:00 +27°C° 0 mm 7 m/s 750 mmHg 53%
    12:00 +26°C° 0 mm 7 m/s 750 mmHg 55%
    13:00 +24°C° 0 mm 8 m/s 750 mmHg 58%
    14:00 +24°C° 0 mm 8 m/s 750 mmHg 60%
    15:00 +22°C° 0 mm 8 m/s 751 mmHg 64%
    16:00 +20°C° 0 mm 8 m/s 751 mmHg 69%
    17:00 +18°C° 0 mm 8 m/s 752 mmHg 74%
    18:00 +17°C° 0 mm 7 m/s 753 mmHg 72%
    19:00 +16°C° 0 mm 7 m/s 753 mmHg 71%
    20:00 +16°C° 0 mm 7 m/s 754 mmHg 70%
    21:00 +16°C° 0 mm 7 m/s 755 mmHg 68%
    22:00 +15°C° 0 mm 7 m/s 755 mmHg 66%
    23:00 +15°C° 0 mm 6 m/s 756 mmHg 64%

    28 Ianuarie, Duminică

    Timp Temperatura Precipitaţii Vânt Presiune Umiditate
    00:00 +15°C° 0 mm 6 m/s 756 mmHg 63%
    01:00 +15°C° 0 mm 5 m/s 756 mmHg 63%
    02:00 +14°C° 0 mm 5 m/s 756 mmHg 62%
    03:00 +14°C° 0 mm 5 m/s 757 mmHg 63%
    04:00 +14°C° 0 mm 5 m/s 757 mmHg 63%
    05:00 +14°C° 0 mm 5 m/s 757 mmHg 64%
    06:00 +14°C° 0 mm 5 m/s 758 mmHg 61%
    07:00 +15°C° 0 mm 5 m/s 759 mmHg 59%
    08:00 +15°C° 0 mm 5 m/s 759 mmHg 56%
    09:00 +16°C° 0 mm 5 m/s 759 mmHg 54%
    10:00 +17°C° 0 mm 5 m/s 759 mmHg 51%
    11:00 +19°C° 0 mm 6 m/s 759 mmHg 48%
    12:00 +19°C° 0 mm 6 m/s 759 mmHg 48%
    13:00 +20°C° 0 mm 6 m/s 759 mmHg 47%
    14:00 +20°C° 0 mm 7 m/s 759 mmHg 46%
    15:00 +20°C° 0 mm 7 m/s 759 mmHg 48%
    16:00 +18°C° 0 mm 7 m/s 760 mmHg 50%
    17:00 +17°C° 0 mm 7 m/s 760 mmHg 52%
    18:00 +17°C° 0 mm 7 m/s 761 mmHg 56%
    19:00 +16°C° 0 mm 7 m/s 761 mmHg 59%
    20:00 +15°C° 0 mm 6 m/s 762 mmHg 63%
    21:00 +15°C° 0 mm 6 m/s 762 mmHg 65%
    22:00 +14°C° 0 mm 6 m/s 762 mmHg 67%
    23:00 +14°C° 0 mm 6 m/s 762 mmHg 68%
    Arată mai mult